"2010-01-13 00:00:00",1587152,2.118,236.2,1.293,0.034,10.12,104.4944,10.78,11.87,12.85,0,110.3,13.35,11.57,198.2
"2010-01-13 00:00:30",1587153,2.084,238.2,0.034,0.029,10.33,104.4709,10.72,11.82,12.88,0,110.3,13.35,11.51,200.2
"2010-01-13 00:01:00",1587154,2.751,243.5,6.781,1.184,12.52,104.467,10.71,11.98,13.09,0,110.3,13.32,11.50,205.5
"2010-01-13 00:01:30",1587155,2.454,241.1,4.85,1.011,11.6,104.4399,10.64,11.81,13.01,0,110.3,13.32,11.43,203.1
"2010-01-13 00:02:00",1587156,3.872,248.5,6.167,1.231,14.39,104.4332,10.62,12,13.22,0,110.3,13.32,11.41,210.5
"2010-01-13 00:02:30",1587157,3.344,246.2,6.881,1.315,13.32,104.4103,10.56,11.89,13.2,0,110.3,13.32,11.35,208.2
"2010-01-13 00:03:00",1587158,1.944,238.5,0.692,0.032,9.75,104.3993,10.54,11.64,12.99,0,110.3,13.36,11.32,200.5
"2010-01-13 00:03:30",1587159,1.914,235.8,0.966,0.036,9.55,104.381,10.49,11.67,13.09,0,110.3,13.36,11.28,197.8
"2010-01-13 00:04:00",1587160,2.879,237.9,7.628,1.304,11.89,104.3655,10.45,11.66,13.12,0,110.3,13.32,11.24,199.9
"2010-01-13 00:04:30",1587161,1.873,227.9,1.249,0.024,9.98,104.3598,10.43,11.56,13.08,0,110.3,13.36,11.22,189.9
"2010-01-13 00:05:00",1587162,1.832,225.3,0.545,0.01,10.06,104.3325,10.36,11.52,13.13,0,110.3,13.36,11.15,187.3
"2010-01-13 00:05:30",1587163,1.827,225.3,0.507,0.014,10.5,104.3299,10.36,11.48,13.16,0,110.3,13.36,11.15,187.3
"2010-01-13 00:06:00",1587164,2.463,228.6,6.186,1.129,12.36,104.3051,10.29,11.62,13.36,0,110.3,13.33,11.08,190.6
"2010-01-13 00:06:30",1587165,2.549,228.3,5.824,1.183,12.23,104.2978,10.28,11.46,13.25,0,110.3,13.33,11.06,190.3
"2010-01-13 00:07:00",1587166,3.241,232.7,6.985,1.335,13.77,104.2868,10.25,11.58,13.43,0,110.3,13.33,11.04,194.7
"2010-01-13 00:07:30",1587167,3.401,233.4,6.607,1.31,14.04,104.2648,10.19,11.62,13.54,0,110.3,13.32,10.98,195.4
"2010-01-13 00:08:00",1587168,1.924,226,2.304,0.482,10.39,104.2681,10.2,11.31,13.3,0,110.3,13.32,10.99,188.0
"2010-01-13 00:08:30",1587169,1.819,226.2,0.673,0.033,9.83,104.2506,10.16,11.32,13.38,0,110.3,13.36,10.94,188.2
"2010-01-13 00:09:00",1587170,2.974,231.8,7.008,1.335,12.04,104.2478,10.15,11.37,13.45,0,110.3,13.33,10.94,193.8
"2010-01-13 00:09:30",1587171,1.811,225.2,0.191,0.036,9.93,104.2517,10.16,11.22,13.37,0,110.3,13.36,10.95,187.2
"2010-01-13 00:10:00",1587172,1.771,225.6,0.521,0.019,10.12,104.2311,10.1,11.2,13.38,0,110.2,13.36,10.89,187.6
"2010-01-13 00:10:30",1587173,1.779,226.6,0.929,0.033,10.49,104.2292,10.1,11.19,13.41,0,110.2,13.37,10.89,188.6
"2010-01-13 00:11:00",1587174,1.879,227.5,3.584,0.491,11.42,104.2236,10.09,11.26,13.58,0,110.3,13.37,10.87,189.5
"2010-01-13 00:11:30",1587175,3.244,235.2,6.898,1.312,13.62,104.1983,10.02,11.17,13.52,0,110.2,13.34,10.81,197.2
"2010-01-13 00:12:00",1587176,3.614,237.3,5.772,1.265,14.98,104.1977,10.02,11.38,13.8,0,110.2,13.34,10.81,199.3
"2010-01-13 00:12:30",1587177,3.773,236.3,6.347,1.176,14.34,104.1774,9.97,11.22,13.67,0,110.2,13.35,10.75,198.3
"2010-01-13 00:13:00",1587178,1.868,228.2,1.069,0.036,10.39,104.1641,9.93,11.04,13.54,0,110.2,13.38,10.72,190.2
"2010-01-13 00:13:30",1587179,2.535,232.6,5.628,1.147,10.76,104.1638,9.93,11.01,13.55,0,110.2,13.35,10.72,194.6
"2010-01-13 00:14:00",1587180,3.004,235.5,7.743,1.337,12.2,104.1517,9.9,11.15,13.73,0,110.2,13.35,10.69,197.5
"2010-01-13 00:14:30",1587181,2.014,231.6,0.876,0.491,10.14,104.1303,9.85,10.97,13.57,0,110.2,13.35,10.63,193.6
"2010-01-13 00:15:00",1587182,1.892,231.8,0.663,0.036,10.21,104.13,9.85,10.93,13.58,0,110.2,13.39,10.63,193.8
"2010-01-13 00:15:30",1587183,1.898,232.5,0.558,0.024,10.47,104.1255,9.83,10.91,13.6,0,110.2,13.39,10.62,194.5
"2010-01-13 00:15:30",1587191,1.816,242.2,0.272,0.026,10.15,104.0655,9.68,10.75,13.72,0,110.2,13.39,10.47,204.2
"2010-01-13 00:16:00",1587184,1.837,232.7,0.693,0.012,10.88,104.1125,9.8,10.94,13.65,0,110.2,13.39,10.59,194.7
"2010-01-13 00:16:00",1587192,1.757,241.5,0.707,0.025,10.35,104.0536,9.65,10.73,13.75,0,110.2,13.39,10.44,203.5
"2010-01-13 00:16:30",1587185,3.347,243,6.274,1.282,14.66,104.0964,9.76,11.07,13.8,0,110.2,13.35,10.55,205.0
"2010-01-13 00:16:30",1587193,1.704,240.1,0.739,0.028,10.67,104.0575,9.66,10.71,13.76,0,110.2,13.4,10.45,202.1
"2010-01-13 00:17:00",1587186,3.584,244.3,6.32,1.255,14.47,104.0961,9.76,11.08,13.88,0,110.2,13.35,10.55,206.3
"2010-01-13 00:17:00",1587194,3.375,246.5,6.414,1.276,14.33,104.0625,9.67,10.88,13.94,0,110.2,13.36,10.46,208.5
"2010-01-13 00:17:30",1587187,3.014,241.1,6.588,1.333,12.78,104.0899,9.74,10.93,13.74,0,110.2,13.35,10.53,203.1
"2010-01-13 00:17:30",1587195,3.338,243,6.71,1.252,14.33,104.0476,9.64,10.93,14.04,0,110.1,13.36,10.42,205.0
"2010-01-13 00:18:00",1587188,1.812,237.7,0.513,0.032,9.9,104.0697,9.69,10.9,13.75,0,110.2,13.39,10.48,199.7
"2010-01-13 00:18:00",1587196,1.809,233.1,3.828,0.669,10.99,104.0298,9.59,10.72,13.9,0,110.2,13.36,10.38,195.1
"2010-01-13 00:18:30",1587189,1.82,239.3,0.449,0.026,9.57,104.0643,9.68,10.8,13.66,0,110.2,13.39,10.46,201.3
"2010-01-13 00:18:30",1587197,2.758,235.1,6.754,1.323,12.15,104.0298,9.59,10.81,13.99,0,110.2,13.36,10.38,197.1
"2010-01-13 00:19:00",1587190,2.996,246.8,7.159,1.334,11.92,104.0702,9.69,10.93,13.85,0,110.2,13.35,10.48,208.8
"2010-01-13 00:19:00",1587198,1.536,227.2,0.52,0.027,9.67,104.0298,9.59,10.63,13.83,0,110.2,13.4,10.38,189.2
"2010-01-13 00:19:30",1587199,1.474,226.5,0.557,0.014,9.53,104.0247,9.58,10.63,13.88,0,110.2,13.4,10.36,188.5
"2010-01-13 00:20:00",1587200,2.5,230.4,6.624,1.33,11.66,104.0067,9.53,10.69,13.95,0,110.2,13.36,10.32,192.4
"2010-01-13 00:20:30",1587201,1.343,225.3,0.452,0.014,10.09,103.9959,9.5,10.64,13.97,0,110.2,13.4,10.29,187.3
"2010-01-13 00:21:00",1587202,1.292,225.7,0.504,0.036,9.63,103.9959,9.5,10.56,13.87,0,110.1,13.4,10.29,187.7
"2010-01-13 00:21:30",1587203,1.264,224.5,0.483,0,9.81,103.9954,9.5,10.53,13.89,0,110.1,13.4,10.29,186.5
"2010-01-13 00:22:00",1587204,1.237,224.1,0.171,0.036,10.26,103.9863,9.48,10.51,13.93,0,110.1,13.4,10.26,186.1
"2010-01-13 00:22:30",1587205,2.354,229.7,6.635,1.33,13.03,103.9646,9.42,10.68,14.12,0,110.1,13.37,10.21,191.7
"2010-01-13 00:23:00",1587206,2.703,231.8,6.779,1.323,13.6,103.9621,9.42,10.7,14.23,0,110.1,13.37,10.20,193.8
"2010-01-13 00:23:30",1587207,2.107,227.7,5.988,1.293,11.82,103.9621,9.42,10.49,14.07,0,110.1,13.37,10.20,189.7
"2010-01-13 00:24:00",1587208,1.45,223.9,4.554,0.687,10.58,103.9564,9.4,10.59,14.22,0,110.1,13.37,10.19,185.9
"2010-01-13 00:24:30",1587209,2.164,224.8,6.896,1.214,10.89,103.9367,9.35,10.45,14.1,0,110.1,13.37,10.14,186.8
"2010-01-13 00:25:00",1587210,1.403,219,0.821,0.014,9.49,103.9299,9.33,10.4,14.11,0,110.1,13.4,10.12,181.0
"2010-01-13 00:25:30",1587211,2.575,221.8,6.491,1.308,11.75,103.93,9.33,10.56,14.28,0,110.1,13.37,10.12,183.8
"2010-01-13 00:26:00",1587212,1.462,214.7,0.265,0.034,10.06,103.933,9.34,10.46,14.2,0,110.1,13.4,10.13,176.7
"2010-01-13 00:26:30",1587213,1.413,215.2,0.535,0.005,10.14,103.9227,9.32,10.36,14.14,0,110.1,13.4,10.10,177.2
"2010-01-13 00:27:00",1587214,1.417,218.1,1.152,0.005,10.27,103.9119,9.29,10.36,14.15,0,110.1,13.4,10.07,180.1
"2010-01-13 00:27:30",1587215,1.414,220.8,0.659,0.007,10.63,103.9146,9.3,10.33,14.15,0,110.1,13.37,10.08,182.8
"2010-01-13 00:28:00",1587216,2.943,231.2,7.083,1.311,13.63,103.9193,9.31,10.49,14.34,0,110.1,13.37,10.09,193.2
"2010-01-13 00:28:30",1587217,2.644,233.3,6.773,1.328,13.58,103.9124,9.29,10.56,14.42,0,110.1,13.37,10.07,195.3
"2010-01-13 00:29:00",1587218,1.151,225.1,0.014,0.024,10.08,103.9015,9.26,10.28,14.18,0,110.1,13.41,10.05,187.1
"2010-01-13 00:29:30",1587219,2.301,228.9,6.289,1.329,12,103.8951,9.25,10.42,14.35,0,110.1,13.38,10.03,190.9
"2010-01-13 00:30:00",1587220,1.132,217.8,2.2,0,9.7,103.8957,9.25,10.24,14.22,0,110.1,13.42,10.03,179.8
"2010-01-13 00:30:30",1587221,1.152,213.4,0.65,0.029,9.57,103.8838,9.22,10.24,14.26,0,110.1,13.42,10.00,175.4
"2010-01-13 00:31:00",1587222,2.2,215,6.605,1.295,11.2,103.8618,9.16,10.24,14.29,0,110.1,13.38,9.94,177.0
"2010-01-13 00:31:30",1587223,2.395,213.4,6.398,1.338,11.93,103.8618,9.16,10.35,14.42,0,110.1,13.38,9.94,175.4
"2010-01-13 00:32:00",1587224,1.363,203.7,0.965,0.026,10.09,103.8618,9.16,10.19,14.28,0,110.1,13.42,9.94,165.7
"2010-01-13 00:32:30",1587225,1.454,201.1,0.469,0.036,10.11,103.8496,9.13,10.16,14.3,0,110.1,13.42,9.91,163.1
"2010-01-13 00:33:00",1587226,1.484,201.2,0.438,0.004,10.34,103.8361,9.09,10.14,14.39,0,110.1,13.42,9.88,163.2
"2010-01-13 00:33:30",1587227,2.979,207,6.798,1.328,13.48,103.8279,9.07,10.37,14.73,0,110.1,13.39,9.86,169.0
"2010-01-13 00:34:00",1587228,2.154,204.6,5.637,1.136,12.03,103.8279,9.07,10.29,14.7,0,110.1,13.39,9.86,166.6
"2010-01-13 00:34:30",1587229,2.071,207.9,4.623,1.037,11.54,103.8208,9.06,10.15,14.59,0,110.1,13.39,9.84,169.9
"2010-01-13 00:35:00",1587230,2.07,210,5.748,1.009,11.36,103.798,9,10.17,14.63,0,110.1,13.39,9.78,172.0
"2010-01-13 00:35:30",1587231,2.147,207.7,5.96,1.072,10.68,103.794,8.99,10.07,14.58,0,110.1,13.39,9.77,169.7
"2010-01-13 00:36:00",1587232,1.994,206.8,5.242,0.998,10.92,103.794,8.99,10.12,14.66,0,110.1,13.39,9.77,168.8
"2010-01-13 00:36:30",1587233,1.916,207.9,4.2,1.015,10.55,103.794,8.99,10.12,14.68,0,110.1,13.39,9.77,169.9
"2010-01-13 00:37:00",1587234,2.519,215.1,6.848,1.289,11.87,103.7895,8.98,10.05,14.67,0,110.1,13.39,9.76,177.1
"2010-01-13 00:37:30",1587235,1.609,207,0,0.012,10.03,103.7729,8.93,9.98,14.59,0,110.1,13.43,9.72,169.0
"2010-01-13 00:38:00",1587236,2.298,207,5.881,1.136,10.78,103.7602,8.9,9.96,14.58,0,110.1,13.39,9.68,169.0
"2010-01-13 00:38:30",1587237,2.774,210.7,7.865,1.323,12.64,103.7602,8.9,10.08,14.73,0,110.1,13.39,9.68,172.7
"2010-01-13 00:39:00",1587238,3.019,213.9,6.851,1.297,12.73,103.7605,8.9,10.1,14.78,0,110.1,13.4,9.68,175.9
"2010-01-13 00:39:30",1587239,2.178,210.6,5.431,0.988,11.6,103.7582,8.9,10.09,14.86,0,110.1,13.4,9.68,172.6
"2010-01-13 00:40:00",1587240,1.828,206,3.348,0.094,10.32,103.7455,8.86,9.91,14.69,0,110.1,13.43,9.65,168.0
"2010-01-13 00:40:30",1587241,1.837,199.3,1.933,0.071,10.35,103.7323,8.83,9.89,14.74,0,110.1,13.43,9.61,161.3
"2010-01-13 00:41:00",1587242,2.979,207.7,10.04,1.327,12.55,103.7336,8.83,10.05,14.98,0,110.1,13.4,9.62,169.7
"2010-01-13 00:41:30",1587243,2.766,206.4,5.843,1.254,11.96,103.7345,8.84,9.91,14.93,0,110.2,13.39,9.62,168.4
"2010-01-13 00:42:00",1587244,2.876,210.7,6.266,1.29,12.14,103.7374,8.84,10.01,15.11,0,110.1,13.39,9.63,172.7
"2010-01-13 00:42:30",1587245,1.889,209.5,1.275,0.037,10.13,103.7395,8.85,9.86,14.96,0,110.1,13.42,9.63,171.5
"2010-01-13 00:43:00",1587246,2.953,216.1,6.722,1.301,12.42,103.7444,8.86,9.94,15.01,0,110.1,13.39,9.64,178.1
"2010-01-13 00:43:30",1587247,2.926,215.9,6.598,1.259,12.39,103.7474,8.87,10.01,15.04,0,110.1,13.39,9.65,177.9
"2010-01-13 00:44:00",1587248,2.481,214.4,5.667,0.998,11.7,103.7471,8.87,10.01,15.03,0,110.1,13.39,9.65,176.4
"2010-01-13 00:44:30",1587249,2.855,216.4,5.623,1.205,11.58,103.7516,8.88,9.84,14.81,0,110.1,13.39,9.66,178.4
"2010-01-13 00:45:00",1587250,2.137,212.2,0.397,0.036,10.5,103.7471,8.87,9.89,14.75,0,110.1,13.43,9.65,174.2
"2010-01-13 00:45:30",1587251,2.182,214.1,0.889,0.012,10.53,103.7444,8.86,9.84,14.76,0,110.1,13.42,9.64,176.1
"2010-01-13 00:46:00",1587252,3.24,219.8,6.845,1.3,12.88,103.7436,8.86,10.05,15.01,0,110.1,13.4,9.64,181.8
"2010-01-13 00:46:30",1587253,2.819,217.2,5.892,1.196,12.24,103.7439,8.86,10.01,14.9,0,110.1,13.4,9.64,179.2
"2010-01-13 00:47:00",1587254,3.2,219.5,6.562,1.289,12.4,103.7411,8.85,9.9,14.65,0,110.1,13.4,9.63,181.5
"2010-01-13 00:47:30",1587255,2.795,217.3,5.144,1.117,11.38,103.7377,8.84,9.85,14.59,0,110.1,13.4,9.63,179.3
"2010-01-13 00:48:00",1587256,3.239,218.1,7.111,1.278,12.35,103.7343,8.83,9.97,14.7,0,110.1,13.4,9.62,180.1
"2010-01-13 00:48:30",1587257,2.213,212.2,0.792,0.037,10.39,103.7323,8.83,9.85,14.67,0,110.1,13.44,9.61,174.2
"2010-01-13 00:49:00",1587258,3.383,215.5,7.01,1.306,12.53,103.7278,8.82,9.94,14.88,0,110.1,13.4,9.60,177.5
"2010-01-13 00:49:30",1587259,3.069,214.5,7.033,1.237,12.38,103.7275,8.82,10,15.06,0,110.1,13.4,9.60,176.5
"2010-01-13 00:50:00",1587260,2.266,210.9,0.598,0.035,10.38,103.7275,8.82,9.83,14.9,0,110.1,13.44,9.60,172.9
"2010-01-13 00:50:30",1587261,2.901,214.8,5.577,1.165,11.21,103.7275,8.82,9.82,14.9,0,110.1,13.4,9.60,176.8
"2010-01-13 00:51:00",1587262,3.227,216,7.096,1.261,12.32,103.7275,8.82,9.94,15.05,0,110.1,13.4,9.60,178.0
"2010-01-13 00:51:30",1587263,2.869,214.2,5.451,1.142,11.7,103.7275,8.82,10,15.22,0,110.1,13.4,9.60,176.2
"2010-01-13 00:52:00",1587264,2.43,214.4,4.445,0.665,11.04,103.7275,8.82,9.92,15.22,0,110.1,13.41,9.60,176.4
"2010-01-13 00:52:30",1587265,3.237,219.3,6.134,1.267,12.29,103.7275,8.82,9.88,15.16,0,110.1,13.4,9.60,181.3
"2010-01-13 00:53:00",1587266,2.197,215.2,0.501,0.028,10.22,103.7275,8.82,9.83,15.02,0,110.1,13.44,9.60,177.2
"2010-01-13 00:53:30",1587267,2.348,216,2.585,0.664,10.39,103.7275,8.82,9.82,14.93,0,110.1,13.41,9.60,178.0
"2010-01-13 00:54:00",1587268,2.672,220.3,5.734,1.022,11.76,103.7275,8.82,10.01,15.03,0,110.1,13.41,9.60,182.3
"2010-01-13 00:54:30",1587269,2.882,219.1,6.599,1.182,11.54,103.7275,8.82,9.81,14.78,0,110.1,13.41,9.60,181.1
"2010-01-13 00:55:00",1587270,2.155,214.4,0.752,0.03,10.66,103.7275,8.82,9.84,14.8,0,110.1,13.44,9.60,176.4
"2010-01-13 00:55:30",1587271,2.652,218.5,5.015,1.021,11.55,103.7275,8.82,9.82,14.9,0,110.1,13.41,9.60,180.5
"2010-01-13 00:56:00",1587272,3.802,224.7,6.954,1.287,14.03,103.7275,8.82,10.02,15.16,0,110.1,13.41,9.60,186.7
"2010-01-13 00:56:30",1587273,2.934,220.1,5.896,1.169,12.52,103.7275,8.82,10.02,15.1,0,110.1,13.41,9.60,182.1
"2010-01-13 00:57:00",1587274,3.069,220,6.181,1.25,12.38,103.7275,8.82,10,15.08,0,110.1,13.41,9.60,182.0
"2010-01-13 00:57:30",1587275,2.432,213.4,2.612,0.784,10.19,103.7275,8.82,9.85,15.04,0,110.1,13.41,9.60,175.4
"2010-01-13 00:58:00",1587276,2.17,212.1,0.808,0.022,9.98,103.7275,8.82,9.84,15.14,0,110.1,13.44,9.60,174.1
"2010-01-13 00:58:30",1587277,2.125,211.3,1.28,0.033,10.56,103.729,8.82,9.97,15.34,0,110,13.44,9.60,173.3
"2010-01-13 00:59:00",1587278,3.386,217.6,6.65,1.302,12.69,103.7284,8.82,9.91,15.31,0,110.1,13.4,9.60,179.6
"2010-01-13 00:59:30",1587279,2.064,212.9,0.665,0.034,10.66,103.7287,8.82,9.96,15.41,0,110.1,13.44,9.60,174.9
"2010-01-13 01:00:00",1587280,2.012,213.7,0.381,0.031,10.73,103.7284,8.82,9.85,15.31,0,110.1,13.44,9.60,175.7
"2010-01-13 01:00:30",1587281,2.6,216.6,5.438,1.146,11.87,103.7292,8.82,9.92,15.4,0,110.1,13.4,9.60,178.6
"2010-01-13 01:01:00",1587282,3.821,222.4,6.49,1.221,14.35,103.7304,8.82,10.13,15.65,0,110.1,13.4,9.61,184.4
"2010-01-13 01:01:30",1587283,3.602,223.3,6.299,1.268,14.21,103.7318,8.83,10.09,15.6,0,110.1,13.4,9.61,185.3
"2010-01-13 01:02:00",1587284,2.116,215.5,2.469,0.514,10.38,103.736,8.84,9.87,15.4,0,110.1,13.4,9.62,177.5
"2010-01-13 01:02:30",1587285,2.035,215,1.095,0.036,10.23,103.738,8.84,9.87,15.24,0,110.1,13.44,9.63,177.0
"2010-01-13 01:03:00",1587286,2.015,218.6,0.847,0.033,9.93,103.7451,8.86,9.89,14.99,0,110.1,13.44,9.65,180.6
"2010-01-13 01:03:30",1587287,1.974,218,0.955,0.031,10.31,103.7567,8.89,9.92,14.73,0,110.1,13.45,9.67,180.0
"2010-01-13 01:04:00",1587288,3.192,225.9,6.432,1.317,12.86,103.7611,8.9,10.02,15.02,0,110.1,13.41,9.69,187.9
"2010-01-13 01:04:30",1587289,1.925,218.6,0.751,0.034,10.79,103.7629,8.91,9.96,15.05,0,110.1,13.45,9.69,180.6
"2010-01-13 01:05:00",1587290,1.942,217.6,1.617,0.038,10.72,103.7647,8.91,9.91,14.92,0,110.1,13.45,9.70,179.6
"2010-01-13 01:05:30",1587291,2.546,218.4,5.719,1.141,12.24,103.7658,8.92,10.04,14.92,0,110.1,13.41,9.70,180.4
"2010-01-13 01:06:00",1587292,4.002,225.2,5.438,1.005,15.16,103.7676,8.92,10.18,14.9,0,110.1,13.41,9.70,187.2
"2010-01-13 01:06:30",1587293,2.797,218.9,6.542,1.294,12.47,103.7679,8.92,10.08,14.66,0,110.1,13.41,9.70,180.9
"2010-01-13 01:07:00",1587294,2.003,215.5,3.929,0.674,10.52,103.7705,8.93,10.01,14.53,0,110.1,13.41,9.71,177.5
"2010-01-13 01:07:30",1587295,1.842,217.7,1.557,0.041,9.52,103.772,8.93,9.94,14.42,0,110.1,13.45,9.71,179.7
"2010-01-13 01:08:00",1587296,1.796,217.2,1.094,0.04,9.73,103.7764,8.94,9.93,14.4,0,110.1,13.45,9.73,179.2
"2010-01-13 01:08:30",1587297,2.123,222.7,4.93,0.815,10.95,103.777,8.94,10.03,14.49,0,110.1,13.42,9.73,184.7
"2010-01-13 01:09:00",1587298,2.884,225.5,6.483,1.246,12.05,103.7778,8.95,9.95,14.37,0,110.1,13.42,9.73,187.5
"2010-01-13 01:09:30",1587299,2.724,222.9,6.564,1.212,12.74,103.7819,8.96,10.11,14.44,0,110.1,13.42,9.74,184.9
"2010-01-13 01:10:00",1587300,1.982,213.4,1.064,0.027,10.88,103.7907,8.98,9.96,14.22,0,110.1,13.45,9.76,175.4
"2010-01-13 01:10:30",1587301,3.261,218.5,7.089,1.377,13.12,103.8063,9.02,10.03,14.24,0,110.1,13.42,9.80,180.5
"2010-01-13 01:11:00",1587302,4.104,221.7,6.239,1.249,14.62,103.8174,9.05,10.26,14.34,0,110.1,13.42,9.83,183.7
"2010-01-13 01:11:30",1587303,3.931,220.9,6.626,1.26,13.86,103.8191,9.05,10.17,14.03,0,110.1,13.42,9.84,182.9
"2010-01-13 01:12:00",1587304,2.28,213.2,0.366,0.035,10.2,103.8199,9.05,9.98,13.75,0,110.1,13.45,9.84,175.2
"2010-01-13 01:12:30",1587305,2.227,213,0.475,0,9.84,103.8246,9.07,10.01,13.69,0,110.1,13.45,9.85,175.0
"2010-01-13 01:13:00",1587306,2.28,212.3,0.428,0.048,9.99,103.8246,9.07,10.01,13.74,0,110.1,13.45,9.85,174.3
"2010-01-13 01:13:30",1587307,3.035,215.9,5.664,1.146,11.2,103.8258,9.07,10.01,13.85,0,110.1,13.42,9.85,177.9
"2010-01-13 01:14:00",1587308,2.786,214.9,4.803,0.829,11.83,103.8243,9.06,10.19,13.93,0,110,13.42,9.85,176.9
"2010-01-13 01:14:30",1587309,3.583,217.3,6.829,1.301,12.7,103.8267,9.07,10.04,13.67,0,110,13.42,9.85,179.3
"2010-01-13 01:15:00",1587310,2.709,212,3.813,0.834,11.78,103.8398,9.1,10.04,13.51,0,110.1,13.42,9.89,174.0
"2010-01-13 01:15:30",1587311,3.684,216.9,7.931,1.349,13.16,103.8518,9.14,10.22,13.72,0,110.1,13.41,9.92,178.9
"2010-01-13 01:16:00",1587312,4.871,223.9,4.519,1.008,15.45,103.8627,9.16,10.39,13.88,0,110.1,13.41,9.95,185.9
"2010-01-13 01:16:30",1587313,3.373,216,4.893,1.174,11.78,103.8632,9.16,10.12,13.67,0,110.1,13.41,9.95,178.0
"2010-01-13 01:17:00",1587314,2.54,213.4,0.555,0.05,9.76,103.8629,9.16,10.07,13.67,0,110,13.45,9.95,175.4
"2010-01-13 01:17:30",1587315,2.481,211.3,2.251,0.071,9.75,103.8638,9.17,10.07,13.84,0,110.1,13.45,9.95,173.3
"2010-01-13 01:18:00",1587316,2.473,209.3,1.534,0.059,10.08,103.8644,9.17,10.09,14.22,0,110.1,13.45,9.95,171.3
"2010-01-13 01:18:30",1587317,3.585,213.4,6.654,1.357,12.65,103.8641,9.17,10.17,14.75,0,110.1,13.41,9.95,175.4
"2010-01-13 01:19:00",1587318,3.307,209.3,4.721,1.264,12.95,103.8641,9.17,10.28,15.16,0,110.1,13.42,9.95,171.3
"2010-01-13 01:19:30",1587319,2.693,200.8,3.22,0.843,11.23,103.8667,9.17,10.12,14.84,0,110.1,13.42,9.96,162.8
"2010-01-13 01:20:00",1587320,3.689,207.2,7.12,1.323,13.68,103.8751,9.19,10.33,14.97,0,110.1,13.42,9.98,169.2
"2010-01-13 01:20:30",1587321,4.213,210.4,6.904,1.254,14.66,103.8853,9.22,10.4,15.19,0,110.1,13.42,10.00,172.4
"2010-01-13 01:21:00",1587322,3.384,206.6,7.07,1.255,12.64,103.8949,9.25,10.35,15.18,0,110.1,13.42,10.03,168.6
"2010-01-13 01:21:30",1587323,3.266,206.5,7.185,1.228,11.57,103.8983,9.25,10.21,15.1,0,110,13.42,10.04,168.5
"2010-01-13 01:22:00",1587324,2.525,200.8,1.648,0.046,9.9,103.8983,9.25,10.17,15.08,0,110.1,13.46,10.04,162.8
"2010-01-13 01:22:30",1587325,2.446,202.1,2.152,0.086,10.03,103.8983,9.25,10.17,15.12,0,110.1,13.46,10.04,164.1
"2010-01-13 01:23:00",1587326,3.034,205.8,4.601,0.981,10.99,103.8983,9.25,10.19,14.99,0,110.1,13.42,10.04,167.8
"2010-01-13 01:23:30",1587327,2.557,204,2.724,0.23,11.29,103.8983,9.25,10.34,15.02,0,110.1,13.46,10.04,166.0
"2010-01-13 01:24:00",1587328,3.671,208,6.852,1.302,12.97,103.8983,9.25,10.23,14.82,0,110.1,13.42,10.04,170.0
"2010-01-13 01:24:30",1587329,4.215,214.3,6.696,1.307,14.24,103.8986,9.25,10.37,14.89,0,110.1,13.42,10.04,176.3
"2010-01-13 01:25:00",1587330,3.986,213.9,6.048,1.317,13.83,103.8989,9.26,10.48,14.93,0,110.1,13.42,10.04,175.9
"2010-01-13 01:25:30",1587331,2.748,208.4,4.316,0.86,11.32,103.8989,9.26,10.39,14.86,0,110.1,13.42,10.04,170.4
"2010-01-13 01:26:00",1587332,3.345,210.3,6.441,1.298,11.39,103.8983,9.25,10.25,14.77,0,110,13.42,10.04,172.3
"2010-01-13 01:26:30",1587333,2.352,204.6,1.455,0.072,9.72,103.8986,9.25,10.26,14.82,0,110.1,13.46,10.04,166.6
"2010-01-13 01:27:00",1587334,2.288,202.7,1.69,0.045,9.67,103.8986,9.25,10.23,14.91,0,110.1,13.46,10.04,164.7
"2010-01-13 01:27:30",1587335,2.327,203.6,2.454,0.078,10.08,103.8989,9.26,10.23,15.01,0,110,13.46,10.04,165.6
"2010-01-13 01:28:00",1587336,2.703,209.2,5.094,0.935,11.49,103.8983,9.25,10.39,15.22,0,110,13.42,10.04,171.2
"2010-01-13 01:28:30",1587337,3.338,212.7,4.78,1.251,12.41,103.8983,9.25,10.26,15.11,0,110,13.42,10.04,174.7
"2010-01-13 01:29:00",1587338,3.697,220.6,6.492,1.34,13.7,103.8992,9.26,10.44,15.23,0,110.1,13.42,10.04,182.6
"2010-01-13 01:29:30",1587339,4.282,224.6,6.166,1.253,14.24,103.9025,9.26,10.5,15.07,0,110,13.42,10.05,186.6
"2010-01-13 01:30:00",1587340,2.85,217,4.819,0.896,11.1,103.9054,9.27,10.26,14.56,0,110,13.42,10.06,179.0
"2010-01-13 01:30:30",1587341,3.689,221.4,6.591,1.284,12.31,103.909,9.28,10.41,14.62,0,110.1,13.42,10.07,183.4
"2010-01-13 01:31:00",1587342,2.456,215.3,0.621,0.021,9.96,103.913,9.29,10.32,14.43,0,110.1,13.45,10.08,177.3
"2010-01-13 01:31:30",1587343,2.426,215.9,0.02,0.03,9.8,103.9144,9.3,10.24,14.35,0,110.1,13.45,10.08,177.9
"2010-01-13 01:32:00",1587344,2.416,216.3,0.546,0.033,10,103.9136,9.29,10.24,14.32,0,110,13.45,10.08,178.3
"2010-01-13 01:32:30",1587345,2.452,217.4,0.757,0.018,10.54,103.9144,9.3,10.26,14.32,0,110,13.45,10.08,179.4
"2010-01-13 01:33:00",1587346,2.848,220.7,5.472,0.985,12.34,103.9138,9.29,10.43,14.44,0,110,13.42,10.08,182.7
"2010-01-13 01:33:30",1587347,4.03,226.4,6.467,1.269,14.23,103.9141,9.29,10.42,14.41,0,110.1,13.42,10.08,188.4
"2010-01-13 01:34:00",1587348,3.683,223.9,6.236,1.302,13.74,103.913,9.29,10.46,14.49,0,110.1,13.42,10.08,185.9
"2010-01-13 01:34:30",1587349,3.085,221.1,7.005,1.238,12.12,103.9127,9.29,10.28,14.36,0,110.1,13.42,10.08,183.1
"2010-01-13 01:35:00",1587350,2.365,215.1,2.795,0.685,10.31,103.9082,9.28,10.26,14.38,0,110.1,13.42,10.06,177.1
"2010-01-13 01:35:30",1587351,3.386,219.8,6.823,1.316,12.34,103.9056,9.27,10.44,14.62,0,110.1,13.43,10.06,181.8
"2010-01-13 01:36:00",1587352,2.219,214.5,1.013,0.039,10.1,103.9042,9.27,10.26,14.52,0,110,13.46,10.05,176.5
"2010-01-13 01:36:30",1587353,2.259,217,1.875,0.045,10.14,103.9025,9.26,10.28,14.57,0,110.1,13.46,10.05,179.0
"2010-01-13 01:37:00",1587354,2.366,220,0.825,0.043,10.49,103.902,9.26,10.27,14.54,0,110.1,13.46,10.05,182.0
"2010-01-13 01:37:30",1587355,2.409,220.3,0.788,0.036,10.99,103.9093,9.28,10.37,14.48,0,110.1,13.46,10.07,182.3
"2010-01-13 01:38:00",1587356,4.151,229.7,6.189,1.249,14.88,103.9133,9.29,10.47,14.51,0,110.1,13.43,10.08,191.7
"2010-01-13 01:38:30",1587357,4.233,228.5,5.995,1.162,14.79,103.915,9.3,10.53,14.59,0,110.1,13.43,10.08,190.5
"2010-01-13 01:39:00",1587358,3.284,226.9,6.549,1.247,12.99,103.9153,9.3,10.5,14.52,0,110,13.43,10.08,188.9
"2010-01-13 01:39:30",1587359,2.744,226.4,5.089,0.911,11.33,103.9153,9.3,10.34,14.23,0,110,13.43,10.08,188.4
"2010-01-13 01:40:00",1587360,3.521,230.5,6.34,1.296,11.87,103.9155,9.3,10.31,14.07,0,110,13.43,10.08,192.5
"2010-01-13 01:40:30",1587361,2.97,229.6,5.92,1.092,11.59,103.9164,9.3,10.45,14.14,0,110,13.43,10.08,191.6
"2010-01-13 01:41:00",1587362,2.444,227.1,0.489,0.002,10.08,103.9195,9.31,10.29,13.83,0,110,13.46,10.09,189.1
"2010-01-13 01:41:30",1587363,2.475,228.2,0.475,0.033,10.37,103.9285,9.33,10.28,13.73,0,110,13.47,10.12,190.2
"2010-01-13 01:42:00",1587364,2.563,228.4,0.521,0.035,10.93,103.9319,9.34,10.3,13.63,0,110,13.47,10.12,190.4
"2010-01-13 01:42:30",1587365,3.919,236.4,6.822,1.303,14.33,103.9322,9.34,10.5,13.71,0,110.1,13.44,10.13,198.4
"2010-01-13 01:43:00",1587366,4.434,238.5,5.682,1.164,15.01,103.9322,9.34,10.55,13.76,0,110.1,13.44,10.13,200.5
"2010-01-13 01:43:30",1587367,4.218,238.4,6.51,1.265,14.23,103.9322,9.34,10.48,13.69,0,110,13.43,10.13,200.4
"2010-01-13 01:44:00",1587368,2.675,230.1,0.395,0.478,10.53,103.9322,9.34,10.31,13.6,0,110,13.43,10.13,192.1
"2010-01-13 01:44:30",1587369,3.006,232.4,4.52,0.98,10.71,103.9322,9.34,10.32,13.64,0,110.1,13.43,10.13,194.4